User: anonymous   Login
Location: Cluny
(50.9333°N, 112.8167°W)
Time: 11:56:33
(UTC-06:00)
Language:

Cosmos 1743 Rocket - Orbit

View from above orbital plane
View from above orbital plane
View from above satellite
View from above satellite

Ground track
Ground track

The orbit data is extracted from the following two-line orbital elements,

1 16720U 86034B   15209.03929318  .00000135  00000-0  13614-4 0  9997
2 16720 082.5553 164.8513 0019304 214.4388 199.6200 14.83107147576967
Epoch (UTC): 28 July 2015 00:56:34
Eccentricity: 0.0019304
inclination: 82.5553°
perigee height: 606 km
apogee height: 633 km
right ascension of ascending node: 164.8513°
argument of perigee: 214.4388°
revolutions per day: 14.83107147
mean anomaly at epoch: 199.6200°
orbit number at epoch: 57696

The dashed part of the orbit path shows where the satellite is in the earth's shadow,  

DLR